Zurück zum Katalog

SPACEMOBILE-005

AktivKommunikationVLEO
NORAD 61046·PAYLOAD·🇺🇸 United States

Gestartet Sep 12, 2024 von Cape Canaveral Space Force Station

Loading…

Nächste Überflüge (nächste 24 Stunden)

TLE

AktuellSource: CelesTrak SupGP

Epoche: Sep 15, 2026, 05:13 UTC

1 61046C 24163B   26258.21799052 -.00019529  00000+0 -88289-3 0  2584
2 61046  52.9735 255.4857 0009171  28.8178 198.9914 15.20380850    12

Verfolge SPACEMOBILE-005 in Echtzeit mit AllMySat

Download on the App Store